Weather reports worldwide

Advertisment
Winston Salem, nc, United States of America (2072822): temperature & dewpoint: 02.07.2020 10:00:00 - 08.07.2020 10:00:00 (EDT)Winston Salem, nc, United States of America (2072822): wind speed & gusts: 02.07.2020 10:00:00 - 08.07.2020 10:00:00 (EDT)Winston Salem, nc, United States of America (2072822): wind direction: 02.07.2020 10:00:00 - 08.07.2020 10:00:00 (EDT)Winston Salem, nc, United States of America (2072822): reduced air pressure: 02.07.2020 10:00:00 - 08.07.2020 10:00:00 (EDT)Winston Salem, nc, United States of America (2072822): visibility: 02.07.2020 10:00:00 - 08.07.2020 10:00:00 (EDT)Winston Salem, nc, United States of America (2072822): precipitation: 02.07.2020 10:00:00 - 08.07.2020 10:00:00 (EDT)
Date & Time tt [°C] td [°C] ff [km/h] ff [kn] fx [km/h] fx [kn] dd ppp [hPa] vv [km] rr [mm]
08.07.2020 10:00:00 - - - - - - - - - -
08.07.2020 09:00:00 22,8 22,2 9 5 - - ENE 1015,4 16 -
08.07.2020 08:00:00 22,2 21,7 11 6 - - NNE 1015,4 16 -
08.07.2020 07:00:00 21,7 21,7 9 5 - - N 1014,7 15 -
08.07.2020 06:00:00 21,1 21,1 5 3 - - NNE 1014,6 16 -
08.07.2020 05:00:00 21,7 21,7 5 3 - - NNE 1014,7 16 -
08.07.2020 04:00:00 22,2 21,7 0 0 - - N 1014,7 16 -
08.07.2020 03:00:00 21,7 21,7 5 3 - - NNE 1014,9 16 -
08.07.2020 02:00:00 22,2 22,2 5 3 - - ENE 1015,4 16 -
08.07.2020 01:00:00 22,2 22,2 0 0 - - N 1015,9 16 -
08.07.2020 00:00:00 22,8 22,8 0 0 - - N 1016,0 16 0,3
07.07.2020 23:00:00 23,3 22,2 0 0 - - N 1016,6 16 0,0
07.07.2020 22:00:00 23,3 22,8 5 3 - - N 1016,3 16 -
07.07.2020 21:00:00 23,3 22,8 0 0 - - N 1015,8 16 -
07.07.2020 20:00:00 24,4 21,7 0 0 - - N 1015,4 16 -
07.07.2020 19:00:00 25,0 21,1 0 0 - - N 1015,6 16 -
07.07.2020 18:00:00 25,6 21,7 8 4 - - SSE 1015,5 16 -
07.07.2020 17:00:00 25,6 22,2 5 3 - - S 1016,4 16 2,8
07.07.2020 16:00:00 24,4 22,8 5 3 - - - 1017,2 16 2,8
07.07.2020 15:00:00 28,9 21,7 11 6 - - - 1016,3 16 -
07.07.2020 14:00:00 28,3 21,7 11 6 - - SE 1017,1 16 -
07.07.2020 13:00:00 27,8 21,1 5 3 - - - 1017,6 16 -
07.07.2020 12:00:00 27,2 21,7 0 0 - - N 1017,7 16 -
07.07.2020 11:00:00 26,7 22,2 8 4 - - ESE 1017,8 15 -
07.07.2020 10:00:00 26,1 22,2 9 5 - - - 1017,6 16 -
07.07.2020 09:00:00 23,9 22,2 5 3 - - ESE 1017,7 16 -
07.07.2020 08:00:00 22,2 21,7 0 0 - - N 1017,6 16 -
07.07.2020 07:00:00 20,6 20,6 0 0 - - N 1017,7 15 -
07.07.2020 06:00:00 20,6 20,0 0 0 - - N 1017,6 16 -
07.07.2020 05:00:00 21,1 20,0 0 0 - - N 1017,4 16 -
07.07.2020 04:00:00 20,6 20,0 0 0 - - N 1017,6 16 -
07.07.2020 03:00:00 20,6 19,4 0 0 - - N 1017,9 16 -
07.07.2020 02:00:00 21,7 20,0 0 0 - - N 1018,2 16 -
07.07.2020 01:00:00 21,7 20,0 5 3 - - SE 1018,6 16 -
07.07.2020 00:00:00 23,3 20,0 0 0 - - N 1018,4 16 -
06.07.2020 23:00:00 24,4 19,4 5 3 - - - 1018,2 16 -
06.07.2020 22:00:00 25,6 18,3 11 6 - - SSW 1017,9 16 -
06.07.2020 21:00:00 26,7 20,0 9 5 - - SSW 1017,4 16 -
06.07.2020 20:00:00 28,3 21,7 16 9 - - SSW 1017,1 16 -
06.07.2020 19:00:00 30,0 18,9 11 6 - - S 1016,9 15 -
06.07.2020 18:00:00 30,6 18,3 8 4 - - - 1016,9 16 -
06.07.2020 17:00:00 30,6 17,8 11 6 - - SSE 1017,1 16 -
06.07.2020 16:00:00 31,1 17,8 8 4 - - - 1017,5 16 -
06.07.2020 15:00:00 31,1 17,2 9 5 - - S 1017,8 16 -
06.07.2020 14:00:00 30,0 19,4 9 5 - - ESE 1018,2 16 -
06.07.2020 13:00:00 29,4 20,6 15 8 - - S 1018,7 16 -
06.07.2020 12:00:00 28,9 21,1 5 3 - - - 1019,0 16 -
06.07.2020 11:00:00 26,7 22,2 8 4 - - SSW 1018,9 16 -
06.07.2020 10:00:00 26,1 21,7 8 4 - - S 1018,9 16 -
06.07.2020 09:00:00 24,4 21,7 5 3 - - - 1018,7 16 -
06.07.2020 08:00:00 22,8 21,7 0 0 - - N 1018,2 15 -
06.07.2020 07:00:00 20,6 20,6 0 0 - - N 1017,7 11 -
06.07.2020 06:00:00 20,0 20,0 0 0 - - N 1016,8 11 -
06.07.2020 05:00:00 20,0 20,0 0 0 - - N 1016,4 11 -
06.07.2020 04:00:00 21,7 21,1 0 0 - - N 1016,3 15 -
06.07.2020 03:00:00 20,6 20,6 0 0 - - N 1016,5 11 -
06.07.2020 02:00:00 21,1 21,1 0 0 - - N 1016,7 13 -
06.07.2020 01:00:00 21,1 21,1 0 0 - - N 1017,1 16 -
06.07.2020 00:00:00 21,1 21,1 0 0 - - N 1016,7 13 -
05.07.2020 23:00:00 22,8 20,6 0 0 - - N 1016,3 16 -
05.07.2020 22:00:00 22,8 20,0 8 4 - - S 1016,4 16 8,1
05.07.2020 21:00:00 21,1 18,9 0 0 61 33 N 1016,9 2,8 6,1
05.07.2020 20:00:00 27,8 21,7 5 3 - - - 1014,9 16 -
05.07.2020 19:00:00 28,3 21,7 9 5 - - WNW 1014,1 16 -
05.07.2020 18:00:00 29,4 21,1 9 5 - - WSW 1013,8 16 -
05.07.2020 17:00:00 31,1 20,0 11 6 - - SSE 1014,1 16 -
05.07.2020 16:00:00 32,8 21,1 8 4 - - SSE 1014,0 16 -
05.07.2020 15:00:00 32,8 20,6 11 6 - - E 1014,8 16 -
05.07.2020 14:00:00 32,2 20,6 13 7 - - SE 1015,3 16 -
05.07.2020 13:00:00 31,1 21,1 11 6 - - E 1015,9 16 -
05.07.2020 12:00:00 30,6 21,7 8 4 - - E 1016,2 16 -
05.07.2020 11:00:00 29,4 22,2 0 0 - - N 1016,1 15 -
05.07.2020 10:00:00 27,8 22,2 0 0 - - N 1015,7 13 -
05.07.2020 09:00:00 26,1 21,7 5 3 - - E 1015,5 10 -
05.07.2020 08:00:00 23,3 21,1 0 0 - - N 1014,9 6 -
05.07.2020 07:00:00 21,7 20,6 0 0 - - N 1014,6 4,0 -
05.07.2020 06:00:00 22,2 20,6 0 0 - - N 1014,2 8 -
05.07.2020 05:00:00 23,3 20,6 0 0 - - N 1013,6 11 -
05.07.2020 04:00:00 22,8 20,6 0 0 - - N 1013,8 8 -
05.07.2020 03:00:00 23,3 20,6 0 0 - - N 1013,8 8 -
05.07.2020 02:00:00 23,3 20,6 0 0 - - N 1014,0 8 -
05.07.2020 01:00:00 22,8 20,6 0 0 - - N 1014,2 4,8 -
05.07.2020 00:00:00 23,3 20,6 0 0 - - N 1014,2 8 -
04.07.2020 23:00:00 24,4 20,6 0 0 - - N 1014,0 6 -
04.07.2020 22:00:00 25,0 20,6 13 7 - - E 1013,5 13 -
04.07.2020 21:00:00 26,7 20,0 0 0 - - N 1012,7 16 -
04.07.2020 20:00:00 27,2 20,0 5 3 - - SE 1012,7 16 -
04.07.2020 19:00:00 31,1 20,0 5 3 - - - 1012,1 16 -
04.07.2020 18:00:00 30,0 19,4 8 4 - - - 1012,2 16 -
04.07.2020 17:00:00 32,2 18,3 8 4 - - E 1012,2 16 -
04.07.2020 16:00:00 33,9 18,3 5 3 - - - 1012,7 16 -
04.07.2020 15:00:00 32,8 18,3 0 0 - - N 1012,9 16 -
04.07.2020 14:00:00 32,8 19,4 9 5 - - ENE 1013,4 16 -
04.07.2020 13:00:00 32,8 18,3 15 8 - - N 1014,0 16 -
04.07.2020 12:00:00 31,7 20,0 8 4 - - E 1014,4 16 -
04.07.2020 11:00:00 31,1 19,4 5 3 - - - 1014,0 16 -
04.07.2020 10:00:00 30,0 20,6 8 4 - - N 1014,0 16 -
04.07.2020 09:00:00 27,2 20,0 8 4 - - NW 1014,0 16 -
04.07.2020 08:00:00 24,4 20,0 0 0 - - N 1013,6 16 -
04.07.2020 07:00:00 22,2 20,6 0 0 - - N 1013,5 16 -
04.07.2020 06:00:00 20,6 19,4 0 0 - - N 1013,3 15 -
04.07.2020 05:00:00 21,7 19,4 0 0 - - N 1013,3 16 -
04.07.2020 04:00:00 23,3 19,4 0 0 - - N 1013,3 16 -
04.07.2020 03:00:00 22,2 19,4 0 0 - - N 1013,4 16 -
04.07.2020 02:00:00 22,2 19,4 0 0 - - N 1013,7 16 -
04.07.2020 01:00:00 25,0 19,4 0 0 - - N 1013,8 16 -
04.07.2020 00:00:00 22,8 19,4 0 0 - - N 1014,0 15 -
03.07.2020 23:00:00 27,2 18,3 0 0 - - N 1013,7 16 -
03.07.2020 22:00:00 25,0 18,9 0 0 - - N 1013,4 16 -
03.07.2020 21:00:00 27,2 18,9 0 0 - - N 1012,5 16 -
03.07.2020 20:00:00 30,6 16,1 0 0 - - N 1012,3 16 -
03.07.2020 19:00:00 31,7 15,0 5 3 - - E 1012,4 16 -
03.07.2020 18:00:00 32,8 15,6 9 5 - - NNE 1012,3 16 -
03.07.2020 17:00:00 32,8 15,0 0 0 - - N 1012,9 16 -
03.07.2020 16:00:00 31,7 15,0 9 5 - - SE 1013,6 16 -
03.07.2020 15:00:00 32,2 15,6 5 3 - - ENE 1014,0 16 -
03.07.2020 14:00:00 31,1 16,1 0 0 - - N 1014,6 16 -
03.07.2020 13:00:00 31,7 16,7 9 5 - - N 1015,0 16 -
03.07.2020 12:00:00 31,1 17,2 8 4 - - N 1015,3 16 -
03.07.2020 11:00:00 30,0 18,3 9 5 - - N 1015,2 16 -
03.07.2020 10:00:00 28,3 19,4 8 4 - - N 1015,2 16 -
03.07.2020 09:00:00 25,6 19,4 8 4 - - W 1015,3 16 -
03.07.2020 08:00:00 23,3 19,4 8 4 - - NNW 1015,0 16 -
03.07.2020 07:00:00 21,7 18,9 0 0 - - N 1014,8 16 -
03.07.2020 06:00:00 19,4 17,8 0 0 - - N 1014,1 16 -
03.07.2020 05:00:00 21,7 17,8 0 0 - - N 1014,0 16 -
03.07.2020 04:00:00 20,6 17,8 0 0 - - N 1014,0 16 -
03.07.2020 03:00:00 21,7 17,8 0 0 - - N 1014,3 16 -
03.07.2020 02:00:00 21,1 18,3 0 0 - - N 1014,6 16 -
03.07.2020 01:00:00 21,7 18,3 5 3 - - N 1014,6 16 -
03.07.2020 00:00:00 23,3 18,3 0 0 - - N 1014,4 16 -
02.07.2020 23:00:00 25,0 18,3 0 0 - - N 1013,9 16 -
02.07.2020 22:00:00 23,9 18,9 0 0 - - N 1013,5 16 -
02.07.2020 21:00:00 26,7 17,8 0 0 - - N 1012,9 16 -
02.07.2020 20:00:00 28,3 17,2 5 3 - - E 1012,8 16 -
02.07.2020 19:00:00 29,4 16,7 13 7 - - NE 1012,7 16 -
02.07.2020 18:00:00 30,6 16,7 16 9 - - NE 1012,7 16 -
02.07.2020 17:00:00 30,6 17,2 13 7 - - ENE 1012,8 16 -
02.07.2020 16:00:00 30,0 17,8 18 10 - - NNE 1012,8 16 -
02.07.2020 15:00:00 30,6 18,3 16 9 - - NE 1012,9 16 -
02.07.2020 14:00:00 30,0 18,9 11 6 - - - 1013,1 16 -
02.07.2020 13:00:00 29,4 18,9 18 10 - - ENE 1013,5 16 -
02.07.2020 12:00:00 28,3 19,4 16 9 - - ENE 1013,9 16 -
02.07.2020 11:00:00 27,2 20,6 13 7 - - NE 1014,0 16 -
02.07.2020 10:00:00 25,6 20,0 13 7 - - NNE 1013,7 16 -

tt = temperature
td = dewpoint
ff = wind speed
fx = gusts
dd = wind direction
ppp = reduced air pressure
vv = visibility
rr = precipitation

Next stations